• In Hungary
  • List of Countries
  • For 7 days
  • Water Temperature
  • Satellite Maps
  • Weather Map
  • News
  • Weather Widgets
  • user-avatar
    Login

    Hourly Weather Toledo

    Today, 24 June, Sunday

    Time Temperature Precipitation Wind Pressure Humidity
    00:00 +19°C° 0 mm 2 mps 740 mmHg 93%
    01:00 +19°C° 0 mm 2 mps 740 mmHg 94%
    02:00 +18°C° 0 mm 2 mps 740 mmHg 95%
    03:00 +18°C° 0 mm 3 mps 740 mmHg 96%
    04:00 +18°C° 0 mm 3 mps 740 mmHg 93%
    05:00 +18°C° 0 mm 3 mps 741 mmHg 90%
    06:00 +18°C° 0 mm 4 mps 741 mmHg 87%
    07:00 +20°C° 0 mm 4 mps 741 mmHg 81%
    08:00 +22°C° 0 mm 4 mps 742 mmHg 75%
    09:00 +23°C° 0 mm 5 mps 742 mmHg 69%
    10:00 +25°C° 0 mm 5 mps 742 mmHg 68%
    11:00 +26°C° 0 mm 5 mps 743 mmHg 67%
    12:00 +27°C° 0 mm 6 mps 743 mmHg 66%
    13:00 +27°C° 0.1 mm 6 mps 743 mmHg 67%
    14:00 +26°C° 0.1 mm 6 mps 743 mmHg 68%
    15:00 +26°C° 0.1 mm 6 mps 743 mmHg 69%
    16:00 +24°C° 0.1 mm 6 mps 744 mmHg 73%
    17:00 +23°C° 0.1 mm 5 mps 744 mmHg 76%
    18:00 +22°C° 0.1 mm 4 mps 745 mmHg 79%
    19:00 +20°C° 0 mm 4 mps 745 mmHg 82%
    20:00 +19°C° 0 mm 4 mps 746 mmHg 85%
    21:00 +18°C° 0 mm 3 mps 747 mmHg 88%
    22:00 +17°C° 0 mm 3 mps 747 mmHg 89%
    23:00 +17°C° 0 mm 3 mps 747 mmHg 90%

    Tomorrow, 25 June, Monday

    Time Temperature Precipitation Wind Pressure Humidity
    00:00 +15°C° 0 mm 4 mps 748 mmHg 91%
    01:00 +16°C° 0 mm 3 mps 748 mmHg 90%
    02:00 +14°C° 0 mm 3 mps 748 mmHg 88%
    03:00 +14°C° 0 mm 3 mps 748 mmHg 87%
    04:00 +16°C° 0 mm 3 mps 748 mmHg 85%
    05:00 +16°C° 0 mm 3 mps 749 mmHg 83%
    06:00 +17°C° 0 mm 3 mps 750 mmHg 81%
    07:00 +18°C° 0 mm 3 mps 750 mmHg 77%
    08:00 +20°C° 0 mm 3 mps 750 mmHg 72%
    09:00 +21°C° 0 mm 3 mps 751 mmHg 68%
    10:00 +22°C° 0 mm 4 mps 751 mmHg 66%
    11:00 +23°C° 0 mm 4 mps 750 mmHg 63%
    12:00 +23°C° 0 mm 5 mps 750 mmHg 61%
    13:00 +25°C° 0 mm 4 mps 750 mmHg 60%
    14:00 +25°C° 0 mm 4 mps 750 mmHg 59%
    15:00 +25°C° 0 mm 4 mps 750 mmHg 57%
    16:00 +23°C° 0 mm 4 mps 750 mmHg 61%
    17:00 +22°C° 0 mm 3 mps 750 mmHg 65%
    18:00 +21°C° 0 mm 3 mps 750 mmHg 69%
    19:00 +20°C° 0 mm 3 mps 750 mmHg 66%
    20:00 +18°C° 0 mm 3 mps 750 mmHg 64%
    21:00 +17°C° 0 mm 4 mps 750 mmHg 62%
    22:00 +17°C° 0 mm 4 mps 750 mmHg 64%
    23:00 +17°C° 0 mm 4 mps 750 mmHg 66%

    Day after tomorrow, 26 June, Tuesday

    Time Temperature Precipitation Wind Pressure Humidity
    00:00 +15°C° 0 mm 4 mps 750 mmHg 68%
    01:00 +16°C° 0 mm 3 mps 750 mmHg 67%
    02:00 +16°C° 0 mm 3 mps 750 mmHg 66%
    03:00 +16°C° 0 mm 3 mps 750 mmHg 65%
    04:00 +15°C° 0 mm 4 mps 750 mmHg 65%
    05:00 +15°C° 0 mm 4 mps 749 mmHg 66%
    06:00 +17°C° 0 mm 4 mps 749 mmHg 67%
    07:00 +18°C° 0 mm 4 mps 749 mmHg 67%
    08:00 +20°C° 0 mm 4 mps 749 mmHg 67%
    09:00 +22°C° 0 mm 4 mps 749 mmHg 67%
    10:00 +23°C° 0.1 mm 4 mps 748 mmHg 66%
    11:00 +26°C° 0.1 mm 4 mps 748 mmHg 65%
    12:00 +28°C° 0.1 mm 5 mps 747 mmHg 64%
    13:00 +29°C° 0.6 mm 5 mps 747 mmHg 65%
    14:00 +29°C° 0.6 mm 5 mps 746 mmHg 66%
    15:00 +30°C° 0.6 mm 5 mps 746 mmHg 67%
    16:00 +29°C° 1.5 mm 4 mps 745 mmHg 73%
    17:00 +27°C° 1.5 mm 4 mps 745 mmHg 79%
    18:00 +26°C° 1.5 mm 3 mps 745 mmHg 85%
    19:00 +26°C° 0.3 mm 4 mps 744 mmHg 87%
    20:00 +25°C° 0.3 mm 4 mps 744 mmHg 90%
    21:00 +25°C° 0.3 mm 4 mps 743 mmHg 92%
    22:00 +23°C° 1.5 mm 4 mps 743 mmHg 92%
    23:00 +23°C° 1.5 mm 4 mps 743 mmHg 91%

    27 June, Wednesday

    Time Temperature Precipitation Wind Pressure Humidity
    00:00 +23°C° 1.5 mm 4 mps 742 mmHg 91%
    01:00 +23°C° 0.1 mm 4 mps 742 mmHg 92%
    02:00 +23°C° 0.1 mm 5 mps 742 mmHg 92%
    03:00 +23°C° 0.1 mm 5 mps 742 mmHg 92%
    04:00 +23°C° 0.1 mm 5 mps 741 mmHg 92%
    05:00 +23°C° 0.1 mm 4 mps 741 mmHg 92%
    06:00 +22°C° 0.1 mm 4 mps 740 mmHg 92%
    07:00 +25°C° 0.1 mm 5 mps 740 mmHg 88%
    08:00 +26°C° 0.1 mm 6 mps 740 mmHg 84%
    09:00 +27°C° 0.1 mm 7 mps 740 mmHg 80%
    10:00 +28°C° 0.6 mm 7 mps 740 mmHg 77%
    11:00 +29°C° 0.6 mm 8 mps 740 mmHg 75%
    12:00 +31°C° 0.6 mm 8 mps 739 mmHg 72%
    13:00 +31°C° 1.9 mm 8 mps 739 mmHg 73%
    14:00 +30°C° 1.9 mm 7 mps 739 mmHg 74%
    15:00 +30°C° 1.9 mm 7 mps 739 mmHg 76%
    16:00 +29°C° 0.4 mm 6 mps 739 mmHg 78%
    17:00 +28°C° 0.4 mm 6 mps 739 mmHg 81%
    18:00 +27°C° 0.4 mm 5 mps 739 mmHg 83%
    19:00 +25°C° 0 mm 5 mps 740 mmHg 86%
    20:00 +23°C° 0 mm 4 mps 740 mmHg 88%
    21:00 +21°C° 0 mm 4 mps 741 mmHg 90%
    22:00 +21°C° 0 mm 4 mps 741 mmHg 92%
    23:00 +20°C° 0 mm 3 mps 741 mmHg 93%

    28 June, Thursday

    Time Temperature Precipitation Wind Pressure Humidity
    00:00 +20°C° 0 mm 3 mps 741 mmHg 95%
    01:00 +20°C° 0 mm 3 mps 742 mmHg 95%
    02:00 +19°C° 0 mm 3 mps 742 mmHg 95%
    03:00 +19°C° 0 mm 3 mps 742 mmHg 95%
    04:00 +20°C° 0 mm 3 mps 743 mmHg 94%
    05:00 +21°C° 0 mm 2 mps 743 mmHg 92%
    06:00 +21°C° 0 mm 2 mps 744 mmHg 91%
    07:00 +24°C° 0 mm 2 mps 744 mmHg 85%
    08:00 +26°C° 0 mm 2 mps 744 mmHg 79%
    09:00 +27°C° 0 mm 2 mps 744 mmHg 74%
    10:00 +29°C° 0 mm 2 mps 744 mmHg 71%
    11:00 +30°C° 0 mm 3 mps 744 mmHg 67%
    12:00 +31°C° 0 mm 3 mps 744 mmHg 64%
    13:00 +31°C° 0 mm 3 mps 744 mmHg 64%
    14:00 +31°C° 0 mm 3 mps 743 mmHg 65%
    15:00 +31°C° 0 mm 3 mps 743 mmHg 65%
    16:00 +31°C° 0 mm 3 mps 743 mmHg 69%
    17:00 +30°C° 0 mm 2 mps 743 mmHg 73%
    18:00 +30°C° 0 mm 2 mps 744 mmHg 77%
    19:00 +28°C° 0 mm 2 mps 744 mmHg 80%
    20:00 +27°C° 0 mm 2 mps 744 mmHg 83%
    21:00 +26°C° 0 mm 2 mps 744 mmHg 85%
    22:00 +25°C° 0 mm 2 mps 744 mmHg 86%
    23:00 +25°C° 0 mm 2 mps 744 mmHg 88%

    29 June, Friday

    Time Temperature Precipitation Wind Pressure Humidity
    00:00 +25°C° 0 mm 2 mps 744 mmHg 89%
    01:00 +24°C° 0 mm 2 mps 744 mmHg 89%
    02:00 +24°C° 0 mm 2 mps 744 mmHg 90%
    03:00 +24°C° 0 mm 2 mps 744 mmHg 90%
    04:00 +25°C° 0 mm 2 mps 744 mmHg 90%
    05:00 +25°C° 0 mm 2 mps 744 mmHg 89%
    06:00 +26°C° 0 mm 3 mps 745 mmHg 88%
    07:00 +28°C° 0.1 mm 3 mps 745 mmHg 85%
    08:00 +30°C° 0.1 mm 3 mps 745 mmHg 81%
    09:00 +31°C° 0.1 mm 3 mps 745 mmHg 77%
    10:00 +34°C° 0 mm 4 mps 745 mmHg 73%
    11:00 +35°C° 0 mm 4 mps 744 mmHg 68%
    12:00 +36°C° 0 mm 5 mps 744 mmHg 63%
    13:00 +36°C° 0 mm 5 mps 744 mmHg 63%
    14:00 +36°C° 0 mm 4 mps 744 mmHg 62%
    15:00 +37°C° 0 mm 4 mps 744 mmHg 62%
    16:00 +36°C° 0 mm 4 mps 744 mmHg 67%
    17:00 +35°C° 0 mm 4 mps 744 mmHg 72%
    18:00 +34°C° 0 mm 4 mps 744 mmHg 77%
    19:00 +32°C° 0 mm 4 mps 744 mmHg 80%
    20:00 +30°C° 0 mm 4 mps 744 mmHg 82%
    21:00 +29°C° 0 mm 4 mps 744 mmHg 85%
    22:00 +29°C° 0 mm 3 mps 744 mmHg 86%
    23:00 +28°C° 0 mm 3 mps 744 mmHg 88%
    Show more